Regional Weather Roundup
Issued by NWS

Home | Current Version | Previous Version | Graphics & Text | Print | Product List | Glossary On
Versions: 1 2 3 4 5 6 7 8 9 10 11 12 13 14 15 16 17 18 19 20 21 22 23 24 25 26 27 28 29 30 31 32 33 34 35 36 37 38 39 40 41 42 43 44 45 46 47 48 49 50
268
ASUS43 KOAX 010110
RWRNE

WEATHER ROUNDUP FOR NEBRASKA
NATIONAL WEATHER SERVICE OMAHA NE
800 PM CDT WED AUG 31 2016

NOTES: SATELLITE DATA IS BEING USED TO AUGMENT CLOUD COVER ABOVE
       12000 FEET.
       "FAIR" INDICATES FEW OR NO CLOUDS BELOW 12,000 FEET WITH NO
       SIGNIFICANT WEATHER AND/OR OBSTRUCTIONS TO VISIBILITY.

  * THESE STATIONS DO NOT REPORT WEATHER SUCH AS RAIN...SNOW OR FOG.

NEZ001>004-019>022-054>056-010200-
NEBRASKA PANHANDLE

CITY           SKY/WX    TMP DP  RH WIND       PRES   REMARKS
SCOTTSBLUFF    CLEAR     75  58  55 SE14G23   30.19R
ALLIANCE       CLEAR     73  56  54 SE10      30.19S
CHADRON        CLEAR     78  54  43 SE13      30.14S
KIMBALL        MOCLDY    72  58  61 SE13G18   30.25R
SIDNEY         CLEAR     71  60  68 SE16      30.24R
$$

NEZ057>060-069>072-079>082-010200-
SOUTHWEST NEBRASKA

CITY           SKY/WX    TMP DP  RH WIND       PRES   REMARKS
NORTH PLATTE   CLEAR     72  60  66 SE7       30.19S
IMPERIAL       CLEAR     71  63  75 E7        30.20S
LEXINGTON      CLEAR     74  64  69 SE5       30.18S
MCCOOK         PTCLDY    71  62  73 SE7       30.19R
OGALLALA       PTCLDY    72  63  73 E7        30.20S
$$

NEZ005>010-023>029-035>040-094-010200-
NORTH CENTRAL NEBRASKA

CITY           SKY/WX    TMP DP  RH WIND       PRES   REMARKS
VALENTINE      CLEAR     77  57  50 SE9       30.17S
AINSWORTH      CLEAR     74  59  59 SE7       30.19R
BROKEN BOW     PTCLDY    73  61  65 E7        30.19R
O`NEILL        CLEAR     75  57  53 SE6       30.19R
ORD            CLEAR     73  56  54 E6        30.17S
THEDFORD       CLEAR     78  57  48 SE10      30.21R
$$

NEZ041-046>049-061>064-073>077-083>087-010200-
SOUTH CENTRAL NEBRASKA

CITY           SKY/WX    TMP DP  RH WIND       PRES   REMARKS
GRAND ISLAND   CLEAR     71  59  65 E6        30.18R
AURORA         CLEAR     69  64  84 E5        30.18R
HASTINGS       CLEAR     70  58  65 E6        30.18S
HEBRON         CLEAR     72  62  72 E3        30.15S
HOLDREGE       PTCLDY    72  64  75 E5        30.18S
KEARNEY *      CLEAR     72  59  64 E7        30.17S
YORK           CLEAR     68  61  77 E6        30.18R
$$

NEZ011>018-030>034-042>045-010200-
NORTHEAST NEBRASKA

CITY           SKY/WX    TMP DP  RH WIND       PRES   REMARKS
NORFOLK        CLEAR     71  59  65 CALM      30.17S
ALBION         CLEAR     70  62  75 E5        30.18S
BLAIR          CLEAR     72  61  67 NE5       30.16R
FREMONT        CLEAR     72  61  67 CALM      30.16S
TEKAMAH        CLEAR     72  64  76 NE6       30.15S
WAYNE          CLEAR     69  65  88 E5        30.17S
$$

NEZ050>053-065>068-078-088>093-010200-
SOUTHEAST NEBRASKA

CITY           SKY/WX    TMP DP  RH WIND       PRES   REMARKS
LINCOLN        CLEAR     72  62  71 NE7       30.16R
OMAHA EPPLEY   PTCLDY    74  60  61 NE7       30.14R
BEATRICE       CLEAR     72  61  68 E3        30.15R
FALLS CITY     CLEAR     73  64  73 NE5       30.12R
NEBRASKA CITY  CLEAR     71  62  73 NE3       30.14S
PLATTSMOUTH    CLEAR     71  61  71 NE3       30.15R
$$

NEZ044-045-051>053-067-010200-
OMAHA AREA

CITY           SKY/WX    TMP DP  RH WIND       PRES   REMARKS
OMAHA EPPLEY   PTCLDY    74  60  61 NE7       30.14R
BLAIR          CLEAR     72  61  67 NE5       30.16R
FREMONT        CLEAR     72  61  67 CALM      30.16S
MILLARD        CLEAR    N/A N/A N/A CALM      30.15R
OFFUTT AFB     MOCLDY    72  62  70 NE3       30.14R
PLATTSMOUTH    CLEAR     71  61  71 NE3       30.15R
WAHOO          FAIR      69  63  80 N3        30.15S
$$




USA.gov is the U.S. government's official web portal to all federal, state and local government web resources and services.